WORLDVIEW-4 (WV-4) (41848 NORAD) Tracking and Keplerian Element Data

This shows tracking and keplerian element data for the satellite.

Feedback or suggestion? Click here.




ElementValue
Catalog41848
NameWORLDVIEW-4 (WV-4)
Epoch Orbit10941
Epoch Day323.09401545
Epoch Year2018
RAAN39.0564
Inclination97.8982
Eccentricity0.0002617
Argument of Perigee100.5661
Mean Anonmoly259.5818
Mean Motion14.84984512
Decay Rate-8E-07
L11 41848U 16067A 18323.09401545 -.00000080 00000-0 -30626-5 0 9992
L22 41848 97.8982 39.0564 0002617 100.5661 259.5818 14.84984512109411

Live tracking and technical data element details for WORLDVIEW-4 (WV-4) (NORAD 41848). WORLDVIEW-4 (WV-4) can be tracked NOW for your location showing map with azimuth and elevation plus other details from your city location.

Track the satellite on the map from your city or location and see movement details for azimuth, elevation, latitude, longitude, range, height, and movement on the map or in text.







IsCatalogInMostPopularTable: catalog: 41848, numindb: 97
Update: records affected: 1



GetName: 41848 WORLDVIEW-4 (WV-4)

Hit Count: updated at: Mon, 19 Nov 2018 23:35:55 GMT